Location: Laguna de la Cañada del Gallo
(40.3974°N, 5.2096°W)
Time: 13:43:10
(UTC+00:00)

Cosmos 1980 Rocket - Pass Details

Date: 18 April 2024
Orbit: 827 x 851 km, 71.0° (Epoch: 26 May)

Event Time Altitude Azimuth Distance (km) Brightness Sun altitude
Exits shadow 23:37:02 26° 314° (NW) 1,580 4.0 -37.4°
Drops below altitude 10° 23:41:13 10° 2° (N) 2,460 5.3 -37.6°
Sets 23:44:04 0° 14° (NNE) 3,403 6.1 -37.7°
